[[{"header":{"parameterUnit":"m.s-1","parameterCategory":1,"la1":30.2991,"la2":30.254,"lo1":-89.0895,"lo2":-89.0444,"dy":0.0017,"dx":0.0017,"nx":28,"ny":28,"refTime":"2023-08-23T03:00:00:Z","depth":0,"parameterNumber":2,"parameterNumberName":"U-component_of_WINDS"},"data":[0,0,0,0,0,0,0,0,0,0,0,0,0,0,0,0,0,0,0,0,0,0,0,0,0,0,0,0,0,0,0,0,0,0,0,0,0,0,0,0,0,0,0,0,0,0,0,0,0,0,0,0,0,0,0,0,0,0,-1.9875,-1.9875,0,-1.9921,-1.9921,-1.9922,-1.9937,-1.9937,-1.9937,-1.9937,-1.9984,-1.9985,-1.9987,0,0,0,0,0,0,0,0,0,0,0,0,0,-1.9803,-1.9804,-1.9875,-1.9876,-1.9876,-1.9921,-1.9921,-1.9922,-1.9937,-1.9937,-1.9937,-1.9937,-1.9983,-1.9985,-1.9987,0,0,0,0,0,0,0,0,0,0,0,0,0,-1.984,-1.9804,-1.9875,-1.9889,-1.9891,-1.9921,-1.9921,-1.9922,-1.9937,-1.9937,-1.9937,-1.9936,-1.9983,-1.9985,-1.9987,-2.0006,0,0,-1.9994,-1.9995,0,0,0,0,0,0,0,0,-1.9838,-1.9842,-1.9886,-1.9888,-1.989,-1.9923,-1.9913,-1.995,-1.9937,-1.992,-1.9937,-1.9936,-1.9964,-1.9968,-1.9977,-2.0008,-2.001,-1.9994,-1.9995,-1.9996,-1.9997,0,0,0,0,0,0,0,-1.9835,-1.9841,-1.9893,-1.9887,-1.9889,-1.9894,-1.9899,-1.992,-1.9943,-1.9921,-1.9922,-1.9928,-1.9965,-1.9975,-1.9978,-2.0011,-1.9994,-1.9996,-1.9997,-1.9998,-2.0062,-2.0063,0,0,0,0,0,0,-1.983,-1.9838,-1.9892,-1.9894,-1.9863,-1.9895,-1.9901,-1.9913,-1.9943,-1.9947,-1.9928,-1.9928,-1.9971,-1.9976,-1.998,-2.0005,-1.9996,-1.9998,-1.9999,-2.0062,-2.0062,-2.0063,0,0,0,0,0,0,-1.9828,-1.9835,-1.989,-1.9867,-1.9874,-1.9897,-1.991,-1.9914,-1.9924,-1.9948,-1.9952,-1.9933,-1.9971,-1.9977,-2.0,-2.0006,-1.9999,-2.0001,-2.0061,-2.0062,-2.0063,-2.0054,0,0,0,0,0,0,-1.9826,-1.9834,-1.9841,-1.9867,-1.9875,-1.9908,-1.991,-1.9915,-1.9927,-1.9928,-1.9954,-1.9958,-1.9971,-1.9996,-2.0002,-2.0009,-2.0003,-2.0061,-2.0062,-2.0062,-2.0054,-2.0054,-2.0055,0,0,0,0,0,-1.9824,-1.9836,-1.9841,-1.9847,-1.9884,-1.9909,-1.9914,-1.9928,-1.9928,-1.9935,-1.9951,-1.9957,-2.0005,-1.9999,-2.0005,-2.0013,-2.006,-2.0061,-2.0062,-2.0054,-2.0054,-2.0055,0,0,0,0,0,0,-1.981,-1.984,-1.9845,-1.9867,-1.9885,-1.9911,-1.9921,-1.9928,-1.9947,-1.9947,-1.9965,-1.9971,-1.9993,-2.0005,-1.9998,-2.0034,-2.0033,-2.0035,-2.0025,-2.0025,-2.0026,-2.0022,-2.0005,0,0,0,0,0,-1.981,-1.9827,-1.9852,-1.9869,-1.9878,-1.9898,-1.9909,-1.9919,-1.9939,-1.9946,-1.9964,-1.9983,-2.0002,-2.0015,-2.0034,-2.0056,-2.0063,-2.0065,-2.0066,-2.0066,-2.0067,-2.0081,-2.0083,-2.0066,-2.0066,-2.0066,0,0,-1.9809,-1.9828,-1.9837,-1.9867,-1.9882,-1.99,-1.9904,-1.9922,-1.9936,-1.9949,-1.9972,-1.9986,-2.0008,-2.0031,-2.0042,-2.0043,-2.0074,-2.0067,-2.0067,-2.0068,-2.0082,-2.0084,-2.0085,-2.0066,-2.0066,-2.0066,0,0,-1.9817,-1.9832,-1.9848,-1.9864,-1.9887,-1.9901,-1.9905,-1.993,-1.9939,-1.9963,-1.9974,-1.999,-2.0023,-2.0039,-2.0052,-2.0068,-2.0074,-2.0074,-2.0075,-2.0089,-2.009,-2.0091,-2.0097,-2.0099,-2.0075,-2.0075,-2.0075,0,-1.9813,-1.984,-1.9856,-1.9874,-1.9887,-1.99,-1.9917,-1.9931,-1.996,-1.9969,-1.9969,-2.0011,-2.0027,-2.0055,-2.0059,-2.0069,-2.0074,-2.007,-2.0089,-2.009,-2.0092,-2.0097,-2.01,-2.0075,-2.0075,-2.0075,-2.0075,0,-1.9834,-1.9853,-1.9863,-1.989,-1.9904,-1.9922,-1.9941,-1.9954,-1.9963,-1.9977,-2.0001,-2.0022,-2.0045,-2.0053,-2.0062,-2.0082,-2.0082,-2.0085,-2.0085,-2.0093,-2.0098,-2.0101,-2.0074,-2.0074,-2.0075,-2.0075,0,0,-1.9834,-1.987,-1.9874,-1.9887,-1.9914,-1.9929,-1.9948,-1.9971,-1.9982,-2.0002,-2.0018,-2.0047,-2.005,-2.0065,-2.0076,-2.0088,-2.01,-2.009,-2.0091,-2.0091,-2.0124,-2.0121,-2.0123,-2.0105,-2.0105,-2.0106,-2.0122,0,-1.9845,-1.9878,-1.9893,-1.992,-1.9937,-1.9951,-1.9968,-1.9987,-2.0001,-2.0018,-2.0034,-2.0054,-2.0057,-2.0066,-2.0079,-2.0095,-2.0107,-2.0095,-2.0121,-2.0121,-2.0114,-2.0126,-2.0123,-2.0137,-2.0125,-2.0125,-2.0125,0,-1.9862,-1.9882,-1.991,-1.9936,-1.9944,-1.9958,-1.9982,-1.9998,-2.0021,-2.003,-2.0047,-2.0058,-2.0079,-2.0078,-2.0108,-2.01,-2.0112,-2.0122,-2.0123,-2.0125,-2.0123,-2.0129,-2.0142,-2.0144,-2.0129,-2.0129,-2.0128,0,-1.9859,-1.9892,-1.9914,-1.9924,-1.9956,-1.9966,-1.9979,-2.0001,-2.0015,-2.0036,-2.0045,-2.0068,-2.0081,-2.0099,-2.0117,-2.0114,-2.0145,-2.0145,-2.0154,-2.0154,-2.0159,-2.0158,-2.0174,-2.0168,-2.0168,-2.0167,-2.0167,0,-1.9869,-1.9886,-1.9913,-1.9926,-1.9945,-1.9964,-1.9983,-1.9998,-2.0018,-2.0035,-2.0049,-2.0064,-2.0087,-2.0106,-2.012,-2.0143,-2.0149,-2.0157,-2.0161,-2.0156,-2.0155,-2.0163,-2.0163,-2.0168,-2.0168,-2.0168,-2.0168,0,-1.9869,-1.9887,-1.9912,-1.9939,-1.9947,-1.996,-1.9985,-1.9998,-2.0014,-2.0035,-2.0041,-2.0065,-2.0088,-2.0108,-2.0138,-2.0148,-2.0172,-2.0176,-2.0164,-2.0166,-2.0173,-2.0172,-2.0195,-2.0199,-2.019,-2.019,-2.019,0,-1.9874,-1.9887,-1.9917,-1.9929,-1.9942,-1.9962,-1.9976,-1.9995,-2.0009,-2.0037,-2.0048,-2.0072,-2.0092,-2.0128,-2.0149,-2.0173,-2.0178,-2.0184,-2.0181,-2.0176,-2.0178,-2.0177,-2.0179,-2.0184,-2.0184,-2.0184,-2.0184,0,-1.9882,-1.9891,-1.991,-1.9933,-1.9949,-1.9968,-1.9988,-1.9997,-2.0021,-2.0036,-2.006,-2.0076,-2.0107,-2.0131,-2.0158,-2.0173,-2.0182,-2.0185,-2.0188,-2.0183,-2.0175,-2.018,-2.0164,-2.0184,-2.0184,-2.0184,-2.0184,-2.0184,-1.9885,-1.9897,-1.992,-1.9942,-1.9958,-1.9977,-1.9991,-2.0008,-2.0028,-2.0055,-2.0066,-2.009,-2.0114,-2.015,-2.0166,-2.0186,-2.0187,-2.0192,-2.0193,-2.0194,-2.0193,-2.0173,-2.0191,-2.0191,-2.0191,-2.0191,-2.0191,0,-1.9893,-1.9909,-1.9928,-1.9955,-1.9973,-1.998,-2.0003,-2.0017,-2.0038,-2.0059,-2.0079,-2.0107,-2.0131,-2.0154,-2.0179,-2.0191,-2.0196,-2.0197,-2.0196,-2.0199,-2.019,-2.0185,-2.0192,-2.0192,-2.0192,-2.0192,-2.0192,-2.0192,-1.99,-1.9922,-1.9933,-1.9964,-1.998,-2.0004,-2.0016,-2.0033,-2.005,-2.0081,-2.01,-2.0115,-2.0138,-2.0165,-2.0187,-2.0194,-2.0202,-2.0202,-2.0209,-2.02,-2.02,-2.0199,-2.0194,-2.0204,-2.0204,-2.0217,-2.0217,-2.0217]},{"header":{"parameterUnit":"m.s-1","parameterCategory":1,"la1":30.2991,"la2":30.254,"lo1":-89.0895,"lo2":-89.0444,"dy":0.0017,"dx":0.0017,"nx":28,"ny":28,"refTime":"2023-08-23T03:00:00:Z","depth":0,"parameterNumber":3,"parameterNumberName":"V-component_of_WINDS"},"data":[0,0,0,0,0,0,0,0,0,0,0,0,0,0,0,0,0,0,0,0,0,0,0,0,0,0,0,0,0,0,0,0,0,0,0,0,0,0,0,0,0,0,0,0,0,0,0,0,0,0,0,0,0,0,0,0,0,0,3.9954,3.9953,0,3.992,3.992,3.9919,3.9918,3.9918,3.9918,3.9919,3.9879,3.9877,3.9876,0,0,0,0,0,0,0,0,0,0,0,0,0,4.0012,4.0011,3.9954,3.9953,3.9953,3.992,3.992,3.9919,3.9917,3.9918,3.9918,3.9919,3.9879,3.9878,3.9876,0,0,0,0,0,0,0,0,0,0,0,0,0,3.9983,4.001,3.9954,3.9948,3.9947,3.992,3.992,3.9919,3.9917,3.9918,3.9919,3.9919,3.988,3.9878,3.9876,3.985,0,0,3.9869,3.9868,0,0,0,0,0,0,0,0,3.9985,3.9981,3.9949,3.9948,3.9947,3.9924,3.9926,3.9896,3.9917,3.9928,3.9919,3.9919,3.9893,3.989,3.9882,3.9849,3.9847,3.9869,3.9868,3.9867,3.9866,0,0,0,0,0,0,0,3.9987,3.9982,3.994,3.9949,3.9948,3.9946,3.9943,3.992,3.9908,3.9928,3.9927,3.9924,3.9892,3.9884,3.9881,3.9846,3.9869,3.9867,3.9866,3.9865,3.9793,3.9792,0,0,0,0,0,0,3.9991,3.9984,3.9941,3.9939,3.9968,3.9944,3.9941,3.9931,3.9908,3.9905,3.9923,3.9924,3.9887,3.9884,3.988,3.985,3.9867,3.9865,3.9863,3.9793,3.9792,3.9792,0,0,0,0,0,0,3.9992,3.9987,3.9943,3.9962,3.9956,3.9943,3.9932,3.993,3.9921,3.9905,3.9902,3.9917,3.9888,3.9883,3.9859,3.9848,3.9864,3.9862,3.9794,3.9793,3.9792,3.9789,0,0,0,0,0,0,3.9994,3.9987,3.9978,3.9962,3.9955,3.9923,3.9931,3.9929,3.9918,3.9919,3.9898,3.9895,3.9888,3.9862,3.9856,3.9846,3.986,3.9795,3.9794,3.9792,3.979,3.9788,3.9787,0,0,0,0,0,3.9996,3.9977,3.9978,3.9972,3.9944,3.9923,3.9919,3.9912,3.9917,3.9908,3.9898,3.9896,3.9851,3.9859,3.9853,3.9842,3.9795,3.9794,3.9792,3.9791,3.9789,3.9787,0,0,0,0,0,0,3.999,3.9974,3.9975,3.9951,3.9938,3.9922,3.991,3.9909,3.9893,3.9894,3.9885,3.988,3.9857,3.9847,3.9857,3.9817,3.9823,3.9821,3.9824,3.9822,3.982,3.9823,3.9858,0,0,0,0,0,3.9986,3.9972,3.9959,3.9938,3.9933,3.9923,3.9913,3.9909,3.9895,3.9889,3.9877,3.9862,3.9844,3.9833,3.9815,3.9789,3.9785,3.9778,3.9777,3.9775,3.9773,3.976,3.9757,3.9787,3.9787,3.9787,0,0,3.9977,3.9968,3.9958,3.9937,3.9927,3.9912,3.9918,3.99,3.9889,3.9886,3.9863,3.9854,3.9837,3.9812,3.98,3.9803,3.9764,3.9774,3.9773,3.9771,3.9758,3.9755,3.9752,3.9786,3.9786,3.9786,0,0,3.9954,3.9945,3.9928,3.9919,3.9905,3.9898,3.9895,3.9879,3.9874,3.9852,3.985,3.9835,3.9805,3.9793,3.9783,3.9759,3.9757,3.9753,3.9744,3.9731,3.9729,3.9726,3.9718,3.9715,3.9751,3.9751,3.9751,0,3.9944,3.9922,3.9919,3.9903,3.9893,3.9893,3.9876,3.9866,3.9846,3.9839,3.9843,3.9808,3.9795,3.9769,3.9763,3.9755,3.975,3.9755,3.973,3.9727,3.9725,3.9717,3.9714,3.9751,3.9751,3.9751,3.9751,0,3.9912,3.9897,3.9885,3.9868,3.9858,3.9841,3.9834,3.9824,3.9822,3.9815,3.9793,3.978,3.9761,3.9754,3.9751,3.9727,3.973,3.9732,3.9738,3.9722,3.9715,3.9711,3.975,3.975,3.975,3.9751,0,0,3.9881,3.9866,3.9861,3.9855,3.9841,3.9828,3.9812,3.9796,3.9787,3.9774,3.976,3.9736,3.9739,3.9727,3.9723,3.9712,3.9695,3.9715,3.9715,3.9712,3.9669,3.9668,3.9664,3.9694,3.9694,3.9693,3.9671,0,3.9856,3.9829,3.9826,3.9801,3.9788,3.9789,3.9774,3.9764,3.9758,3.9744,3.9737,3.9721,3.9725,3.9719,3.9708,3.9699,3.9686,3.9701,3.968,3.9679,3.9684,3.966,3.9658,3.9637,3.9668,3.9667,3.9667,0,3.9823,3.9812,3.9786,3.9776,3.977,3.9757,3.9744,3.9731,3.9719,3.9716,3.9705,3.9703,3.9686,3.9694,3.967,3.968,3.9672,3.9667,3.9666,3.9663,3.9672,3.9656,3.963,3.9627,3.9662,3.9662,3.9663,0,3.9804,3.9782,3.9765,3.9759,3.9746,3.9738,3.9732,3.9721,3.9712,3.97,3.9694,3.9679,3.967,3.9659,3.9653,3.9659,3.9629,3.9636,3.9625,3.9626,3.9618,3.9618,3.959,3.9613,3.9613,3.9613,3.9613,0,3.9776,3.976,3.9757,3.9745,3.9728,3.9726,3.9708,3.9702,3.9693,3.9681,3.968,3.9668,3.9661,3.9648,3.9643,3.9624,3.962,3.9617,3.9615,3.9617,3.9617,3.961,3.9611,3.9612,3.9613,3.9613,3.9613,0,3.9751,3.9748,3.9729,3.972,3.9717,3.9705,3.9697,3.9686,3.9682,3.9666,3.9662,3.9654,3.9639,3.9633,3.9613,3.961,3.9589,3.9588,3.9593,3.9593,3.9582,3.9583,3.9548,3.9543,3.957,3.957,3.9569,0,3.9733,3.9722,3.9713,3.9705,3.97,3.9688,3.968,3.9677,3.9669,3.9656,3.9647,3.9633,3.9621,3.9597,3.9588,3.9574,3.9573,3.9562,3.9571,3.9573,3.9573,3.9574,3.9573,3.956,3.956,3.9559,3.9559,0,3.9702,3.9702,3.9691,3.9681,3.9672,3.9663,3.9654,3.9648,3.9644,3.9635,3.9621,3.9612,3.9594,3.958,3.9565,3.9558,3.9558,3.9557,3.9554,3.9554,3.9558,3.9556,3.9589,3.9557,3.9558,3.9558,3.9558,3.9558,3.968,3.9671,3.9664,3.9652,3.9646,3.9639,3.9629,3.9625,3.9613,3.96,3.9599,3.9584,3.9574,3.9556,3.9548,3.9536,3.9539,3.9534,3.9532,3.9531,3.9531,3.9561,3.9533,3.9533,3.9533,3.9533,3.9533,0,3.9649,3.9646,3.9636,3.9625,3.9616,3.962,3.9611,3.9603,3.959,3.9582,3.9572,3.9556,3.9543,3.9536,3.9522,3.9514,3.9514,3.9511,3.9511,3.9509,3.9529,3.9533,3.9511,3.9511,3.9511,3.9511,3.9511,3.9511,3.9632,3.9617,3.9616,3.9598,3.9594,3.9581,3.9576,3.9569,3.9563,3.9546,3.9537,3.9533,3.9525,3.9511,3.95,3.9498,3.9493,3.9489,3.9488,3.9506,3.9508,3.951,3.9514,3.9488,3.9488,3.9469,3.9469,3.9469]}]]